Year,Month,Day,Hour,Minute,Value (Times are PST for temperature in C)
2018,07,16,00,00,21.60
2018,07,16,00,01,21.60
2018,07,16,00,02,21.50
2018,07,16,00,03,21.40
2018,07,16,00,04,21.40
2018,07,16,00,05,21.40
2018,07,16,00,06,21.30
2018,07,16,00,07,21.30
2018,07,16,00,08,21.30
2018,07,16,00,09,21.20
2018,07,16,00,10,21.20
2018,07,16,00,11,21.20
2018,07,16,00,12,21.20
2018,07,16,00,13,21.20
2018,07,16,00,14,21.20
2018,07,16,00,15,21.20
2018,07,16,00,16,21.20
2018,07,16,00,17,21.20
2018,07,16,00,18,21.20
2018,07,16,00,19,21.20
2018,07,16,00,20,21.20
2018,07,16,00,21,21.20
2018,07,16,00,22,21.20
2018,07,16,00,23,21.10
2018,07,16,00,24,21.10
2018,07,16,00,25,21.10
2018,07,16,00,26,21.10
2018,07,16,00,27,21.00
2018,07,16,00,28,20.90
2018,07,16,00,29,20.80
2018,07,16,00,30,20.80
2018,07,16,00,31,20.70
2018,07,16,00,32,20.70
2018,07,16,00,33,20.60
2018,07,16,00,34,20.60
2018,07,16,00,35,20.60
2018,07,16,00,36,20.60
2018,07,16,00,37,20.60
2018,07,16,00,38,20.60
2018,07,16,00,39,20.60
2018,07,16,00,40,20.60
2018,07,16,00,41,20.60
2018,07,16,00,42,20.60
2018,07,16,00,43,20.60
2018,07,16,00,44,20.50
2018,07,16,00,45,20.50
2018,07,16,00,46,20.50
2018,07,16,00,47,20.50
2018,07,16,00,48,20.50
2018,07,16,00,49,20.50
2018,07,16,00,50,20.50
2018,07,16,00,51,20.50
2018,07,16,00,52,20.40
2018,07,16,00,53,20.40
2018,07,16,00,54,20.40
2018,07,16,00,55,20.40
2018,07,16,00,56,20.40
2018,07,16,00,57,20.30
2018,07,16,00,58,20.30
2018,07,16,00,59,20.30
2018,07,16,01,00,20.30
2018,07,16,01,01,20.30
2018,07,16,01,02,20.30
2018,07,16,01,03,20.30
2018,07,16,01,04,20.30
2018,07,16,01,05,20.30
2018,07,16,01,06,20.20
2018,07,16,01,07,20.20
2018,07,16,01,08,20.20
2018,07,16,01,09,20.10
2018,07,16,01,10,20.10
2018,07,16,01,11,20.00
2018,07,16,01,12,20.00
2018,07,16,01,13,20.00
2018,07,16,01,14,20.00
2018,07,16,01,15,20.00
2018,07,16,01,16,19.90
2018,07,16,01,17,20.00
2018,07,16,01,18,20.00
2018,07,16,01,19,20.00
2018,07,16,01,20,19.90
2018,07,16,01,21,19.90
2018,07,16,01,22,19.90
2018,07,16,01,23,19.90
2018,07,16,01,24,19.90
2018,07,16,01,25,19.90
2018,07,16,01,26,19.90
2018,07,16,01,27,19.90
2018,07,16,01,28,19.90
2018,07,16,01,29,19.90
2018,07,16,01,30,19.90
2018,07,16,01,31,19.80
2018,07,16,01,32,19.80
2018,07,16,01,33,19.80
2018,07,16,01,34,19.70
2018,07,16,01,35,19.70
2018,07,16,01,36,19.70
2018,07,16,01,37,19.60
2018,07,16,01,38,19.60
2018,07,16,01,39,19.50
2018,07,16,01,40,19.40
2018,07,16,01,41,19.30
2018,07,16,01,42,19.20
2018,07,16,01,43,19.10
2018,07,16,01,44,19.00
2018,07,16,01,45,18.90
2018,07,16,01,46,18.80
2018,07,16,01,47,18.70
2018,07,16,01,48,18.50
2018,07,16,01,49,18.40
2018,07,16,01,50,18.30
2018,07,16,01,51,18.20
2018,07,16,01,52,18.10
2018,07,16,01,53,18.10
2018,07,16,01,54,18.00
2018,07,16,01,55,17.90
2018,07,16,01,56,17.80
2018,07,16,01,57,17.70
2018,07,16,01,58,17.70
2018,07,16,01,59,17.60
2018,07,16,02,00,17.50
2018,07,16,02,01,17.50
2018,07,16,02,02,17.40
2018,07,16,02,03,17.30
2018,07,16,02,04,17.30
2018,07,16,02,05,17.20
2018,07,16,02,06,17.20
2018,07,16,02,07,17.10
2018,07,16,02,08,17.10
2018,07,16,02,09,17.10
2018,07,16,02,10,17.00
2018,07,16,02,11,17.00
2018,07,16,02,12,17.00
2018,07,16,02,13,16.90
2018,07,16,02,14,16.90
2018,07,16,02,15,16.90
2018,07,16,02,16,16.90
2018,07,16,02,17,16.90
2018,07,16,02,18,16.90
2018,07,16,02,19,16.80
2018,07,16,02,20,16.80
2018,07,16,02,21,16.80
2018,07,16,02,22,16.80
2018,07,16,02,23,16.80
2018,07,16,02,24,16.80
2018,07,16,02,25,16.80
2018,07,16,02,26,16.80
2018,07,16,02,27,16.80
2018,07,16,02,28,16.80
2018,07,16,02,29,16.80
2018,07,16,02,30,16.80
2018,07,16,02,31,16.70
2018,07,16,02,32,16.70
2018,07,16,02,33,16.70
2018,07,16,02,34,16.70
2018,07,16,02,35,16.70
2018,07,16,02,36,16.60
2018,07,16,02,37,16.60
2018,07,16,02,38,16.60
2018,07,16,02,39,16.60
2018,07,16,02,40,16.50
2018,07,16,02,41,16.50
2018,07,16,02,42,16.60
2018,07,16,02,43,16.60
2018,07,16,02,44,16.60
2018,07,16,02,45,16.70
2018,07,16,02,46,16.70
2018,07,16,02,47,16.70
2018,07,16,02,48,16.80
2018,07,16,02,49,16.80
2018,07,16,02,50,16.80
2018,07,16,02,51,16.80
2018,07,16,02,52,16.80
2018,07,16,02,53,16.80
2018,07,16,02,54,16.80
2018,07,16,02,55,16.80
2018,07,16,02,56,16.80
2018,07,16,02,57,16.80
2018,07,16,02,58,16.80
2018,07,16,02,59,16.70
2018,07,16,03,00,16.70
2018,07,16,03,01,16.70
2018,07,16,03,02,16.60
2018,07,16,03,03,16.60
2018,07,16,03,04,16.60
2018,07,16,03,05,16.60
2018,07,16,03,06,16.50
2018,07,16,03,07,16.50
2018,07,16,03,08,16.40
2018,07,16,03,09,16.40
2018,07,16,03,10,16.30
2018,07,16,03,11,16.30
2018,07,16,03,12,16.20
2018,07,16,03,13,16.20
2018,07,16,03,14,16.10
2018,07,16,03,15,16.10
2018,07,16,03,16,16.10
2018,07,16,03,17,16.00
2018,07,16,03,18,16.00
2018,07,16,03,19,15.90
2018,07,16,03,20,15.90
2018,07,16,03,21,15.80
2018,07,16,03,22,15.80
2018,07,16,03,23,15.80
2018,07,16,03,24,15.70
2018,07,16,03,25,15.70
2018,07,16,03,26,15.60
2018,07,16,03,27,15.60
2018,07,16,03,28,15.60
2018,07,16,03,29,15.50
2018,07,16,03,30,15.50
2018,07,16,03,31,15.50
2018,07,16,03,32,15.40
2018,07,16,03,33,15.40
2018,07,16,03,34,15.40
2018,07,16,03,35,15.30
2018,07,16,03,36,15.30
2018,07,16,03,37,15.30
2018,07,16,03,38,15.20
2018,07,16,03,39,15.20
2018,07,16,03,40,15.20
2018,07,16,03,41,15.10
2018,07,16,03,42,15.10
2018,07,16,03,43,15.00
2018,07,16,03,44,15.00
2018,07,16,03,45,15.00
2018,07,16,03,46,15.00
2018,07,16,03,47,15.00
2018,07,16,03,48,15.00
2018,07,16,03,49,15.00
2018,07,16,03,50,15.00
2018,07,16,03,51,15.00
2018,07,16,03,52,15.00
2018,07,16,03,53,15.00
2018,07,16,03,54,15.00
2018,07,16,03,55,15.00
2018,07,16,03,56,15.00
2018,07,16,03,57,15.00
2018,07,16,03,58,14.90
2018,07,16,03,59,15.00
2018,07,16,04,00,15.00
2018,07,16,04,01,15.00
2018,07,16,04,02,15.00
2018,07,16,04,03,15.00
2018,07,16,04,04,15.00
2018,07,16,04,05,15.00
2018,07,16,04,06,15.00
2018,07,16,04,07,15.00
2018,07,16,04,08,15.00
2018,07,16,04,09,15.00
2018,07,16,04,10,15.00
2018,07,16,04,11,15.00
2018,07,16,04,12,15.00
2018,07,16,04,13,15.00
2018,07,16,04,14,15.00
2018,07,16,04,15,15.00
2018,07,16,04,16,15.00
2018,07,16,04,17,15.00
2018,07,16,04,18,15.00
2018,07,16,04,19,15.00
2018,07,16,04,20,15.00
2018,07,16,04,21,14.90
2018,07,16,04,22,14.80
2018,07,16,04,23,14.80
2018,07,16,04,24,14.80
2018,07,16,04,25,14.70
2018,07,16,04,26,14.70
2018,07,16,04,27,14.60
2018,07,16,04,28,14.60
2018,07,16,04,29,14.50
2018,07,16,04,30,14.50
2018,07,16,04,31,14.50
2018,07,16,04,32,14.40
2018,07,16,04,33,14.40
2018,07,16,04,34,14.40
2018,07,16,04,35,14.30
2018,07,16,04,36,14.30
2018,07,16,04,37,14.30
2018,07,16,04,38,14.30
2018,07,16,04,39,14.30
2018,07,16,04,40,14.20
2018,07,16,04,41,14.20
2018,07,16,04,42,14.20
2018,07,16,04,43,14.20
2018,07,16,04,44,14.20
2018,07,16,04,45,14.20
2018,07,16,04,46,14.20
2018,07,16,04,47,14.20
2018,07,16,04,48,14.20
2018,07,16,04,49,14.20
2018,07,16,04,50,14.20
2018,07,16,04,51,14.20
2018,07,16,04,52,14.30
2018,07,16,04,53,14.30
2018,07,16,04,54,14.30
2018,07,16,04,55,14.30
2018,07,16,04,56,14.30
2018,07,16,04,57,14.40
2018,07,16,04,58,14.40
2018,07,16,04,59,14.40
2018,07,16,05,00,14.50
2018,07,16,05,01,14.50
2018,07,16,05,02,14.50
2018,07,16,05,03,14.50
2018,07,16,05,04,14.50
2018,07,16,05,05,14.50
2018,07,16,05,06,14.50
2018,07,16,05,07,14.50
2018,07,16,05,08,14.40
2018,07,16,05,09,14.40
2018,07,16,05,10,14.40
2018,07,16,05,11,14.40
2018,07,16,05,12,14.40
2018,07,16,05,13,14.30
2018,07,16,05,14,14.30
2018,07,16,05,15,14.30
2018,07,16,05,16,14.30
2018,07,16,05,17,14.30
2018,07,16,05,18,14.30
2018,07,16,05,19,14.30
2018,07,16,05,20,14.30
2018,07,16,05,21,14.30
2018,07,16,05,22,14.30
2018,07,16,05,23,14.30
2018,07,16,05,24,14.30
2018,07,16,05,25,14.30
2018,07,16,05,26,14.30
2018,07,16,05,27,14.30
2018,07,16,05,28,14.30
2018,07,16,05,29,14.30
2018,07,16,05,30,14.30
2018,07,16,05,31,14.30
2018,07,16,05,32,14.40
2018,07,16,05,33,14.40
2018,07,16,05,34,14.40
2018,07,16,05,35,14.50
2018,07,16,05,36,14.50
2018,07,16,05,37,14.60
2018,07,16,05,38,14.60
2018,07,16,05,39,14.60
2018,07,16,05,40,14.60
2018,07,16,05,41,14.60
2018,07,16,05,42,14.50
2018,07,16,05,43,14.50
2018,07,16,05,44,14.60
2018,07,16,05,45,14.60
2018,07,16,05,46,14.70
2018,07,16,05,47,14.70
2018,07,16,05,48,14.70
2018,07,16,05,49,14.70
2018,07,16,05,50,14.80
2018,07,16,05,51,14.80
2018,07,16,05,52,14.80
2018,07,16,05,53,14.90
2018,07,16,05,54,15.00
2018,07,16,05,55,15.00
2018,07,16,05,56,15.00
2018,07,16,05,57,15.20
2018,07,16,05,58,15.30
2018,07,16,05,59,15.50
2018,07,16,06,00,15.60
2018,07,16,06,01,15.70
2018,07,16,06,02,15.80
2018,07,16,06,03,15.80
2018,07,16,06,04,15.80
2018,07,16,06,05,15.90
2018,07,16,06,06,15.90
2018,07,16,06,07,15.90
2018,07,16,06,08,15.90
2018,07,16,06,09,16.00
2018,07,16,06,10,16.00
2018,07,16,06,11,16.00
2018,07,16,06,12,16.10
2018,07,16,06,13,16.10
2018,07,16,06,14,16.20
2018,07,16,06,15,16.20
2018,07,16,06,16,16.30
2018,07,16,06,17,16.40
2018,07,16,06,18,16.40
2018,07,16,06,19,16.50
2018,07,16,06,20,16.60
2018,07,16,06,21,16.60
2018,07,16,06,22,16.70
2018,07,16,06,23,16.80
2018,07,16,06,24,16.80
2018,07,16,06,25,16.90
2018,07,16,06,26,16.90
2018,07,16,06,27,17.00
2018,07,16,06,28,17.00
2018,07,16,06,29,17.00
2018,07,16,06,30,17.10
2018,07,16,06,31,17.10
2018,07,16,06,32,17.10
2018,07,16,06,33,17.20
2018,07,16,06,34,17.20
2018,07,16,06,35,17.20
2018,07,16,06,36,17.20
2018,07,16,06,37,17.30
2018,07,16,06,38,17.30
2018,07,16,06,39,17.30
2018,07,16,06,40,17.40
2018,07,16,06,41,17.40
2018,07,16,06,42,17.40
2018,07,16,06,43,17.40
2018,07,16,06,44,17.40
2018,07,16,06,45,17.50
2018,07,16,06,46,17.50
2018,07,16,06,47,17.60
2018,07,16,06,48,17.60
2018,07,16,06,49,17.70
2018,07,16,06,50,17.80
2018,07,16,06,51,17.80
2018,07,16,06,52,17.90
2018,07,16,06,53,18.00
2018,07,16,06,54,18.00
2018,07,16,06,55,18.10
2018,07,16,06,56,18.10
2018,07,16,06,57,18.20
2018,07,16,06,58,18.20
2018,07,16,06,59,18.20
2018,07,16,07,00,18.30
2018,07,16,07,01,18.40
2018,07,16,07,02,18.40
2018,07,16,07,03,18.50
2018,07,16,07,04,18.50
2018,07,16,07,05,18.60
2018,07,16,07,06,18.60
2018,07,16,07,07,18.70
2018,07,16,07,08,18.70
2018,07,16,07,09,18.70
2018,07,16,07,10,18.80
2018,07,16,07,11,18.80
2018,07,16,07,12,18.80
2018,07,16,07,13,18.90
2018,07,16,07,14,18.90
2018,07,16,07,15,19.00
2018,07,16,07,16,19.00
2018,07,16,07,17,19.10
2018,07,16,07,18,19.10
2018,07,16,07,19,19.20
2018,07,16,07,20,19.20
2018,07,16,07,21,19.20
2018,07,16,07,22,19.30
2018,07,16,07,23,19.30
2018,07,16,07,24,19.30
2018,07,16,07,25,19.30
2018,07,16,07,26,19.40
2018,07,16,07,27,19.40
2018,07,16,07,28,19.40
2018,07,16,07,29,19.40
2018,07,16,07,30,19.50
2018,07,16,07,31,19.50
2018,07,16,07,32,19.50
2018,07,16,07,33,19.60
2018,07,16,07,34,19.60
2018,07,16,07,35,19.60
2018,07,16,07,36,19.70
2018,07,16,07,37,19.70
2018,07,16,07,38,19.70
2018,07,16,07,39,19.80
2018,07,16,07,40,19.80
2018,07,16,07,41,19.80
2018,07,16,07,42,19.80
2018,07,16,07,43,19.90
2018,07,16,07,44,19.90
2018,07,16,07,45,20.00
2018,07,16,07,46,20.00
2018,07,16,07,47,20.00
2018,07,16,07,48,20.10
2018,07,16,07,49,20.10
2018,07,16,07,50,20.10
2018,07,16,07,51,20.10
2018,07,16,07,52,20.10
2018,07,16,07,53,20.10
2018,07,16,07,54,20.10
2018,07,16,07,55,20.10
2018,07,16,07,56,20.10
2018,07,16,07,57,20.10
2018,07,16,07,58,20.10
2018,07,16,07,59,20.10
2018,07,16,08,00,20.10
2018,07,16,08,01,20.10
2018,07,16,08,02,20.10
2018,07,16,08,03,20.20
2018,07,16,08,04,20.20
2018,07,16,08,05,20.20
2018,07,16,08,06,20.20
2018,07,16,08,07,20.20
2018,07,16,08,08,20.20
2018,07,16,08,09,20.20
2018,07,16,08,10,20.30
2018,07,16,08,11,20.30
2018,07,16,08,12,20.30
2018,07,16,08,13,20.30
2018,07,16,08,14,20.20
2018,07,16,08,15,20.20
2018,07,16,08,16,20.20
2018,07,16,08,17,20.20
2018,07,16,08,18,20.10
2018,07,16,08,19,20.10
2018,07,16,08,20,20.10
2018,07,16,08,21,20.10
2018,07,16,08,22,20.10
2018,07,16,08,23,20.20
2018,07,16,08,24,20.20
2018,07,16,08,25,20.20
2018,07,16,08,26,20.20
2018,07,16,08,27,20.20
2018,07,16,08,28,20.20
2018,07,16,08,29,20.30
2018,07,16,08,30,20.30
2018,07,16,08,31,20.30
2018,07,16,08,32,20.30
2018,07,16,08,33,20.30
2018,07,16,08,34,20.30
2018,07,16,08,35,20.30
2018,07,16,08,36,20.40
2018,07,16,08,37,20.40
2018,07,16,08,38,20.50
2018,07,16,08,39,20.50
2018,07,16,08,40,20.50
2018,07,16,08,41,20.50
2018,07,16,08,42,20.50
2018,07,16,08,43,20.60
2018,07,16,08,44,20.60
2018,07,16,08,45,20.70
2018,07,16,08,46,20.70
2018,07,16,08,47,20.70
2018,07,16,08,48,20.80
2018,07,16,08,49,20.90
2018,07,16,08,50,21.00
2018,07,16,08,51,21.10
2018,07,16,08,52,21.10
2018,07,16,08,53,21.10
2018,07,16,08,54,21.10
2018,07,16,08,55,21.00
2018,07,16,08,56,21.00
2018,07,16,08,57,20.90
2018,07,16,08,58,20.90
2018,07,16,08,59,20.90
2018,07,16,09,00,21.00
2018,07,16,09,01,21.00
2018,07,16,09,02,21.00
2018,07,16,09,03,21.10
2018,07,16,09,04,21.10
2018,07,16,09,05,21.10
2018,07,16,09,06,21.20
2018,07,16,09,07,21.20
2018,07,16,09,08,21.30
2018,07,16,09,09,21.30
2018,07,16,09,10,21.40
2018,07,16,09,11,21.40
2018,07,16,09,12,21.40
2018,07,16,09,13,21.50
2018,07,16,09,14,21.50
2018,07,16,09,15,21.50
2018,07,16,09,16,21.50
2018,07,16,09,17,21.40
2018,07,16,09,18,21.50
2018,07,16,09,19,21.50
2018,07,16,09,20,21.40
2018,07,16,09,21,21.40
2018,07,16,09,22,21.40
2018,07,16,09,23,21.30
2018,07,16,09,24,21.30
2018,07,16,09,25,21.30
2018,07,16,09,26,21.20
2018,07,16,09,27,21.20
2018,07,16,09,28,21.10
2018,07,16,09,29,21.00
2018,07,16,09,30,21.00
2018,07,16,09,31,20.90
2018,07,16,09,32,20.80
2018,07,16,09,33,20.70
2018,07,16,09,34,20.70
2018,07,16,09,35,20.60
2018,07,16,09,36,20.60
2018,07,16,09,37,20.70
2018,07,16,09,38,20.60
2018,07,16,09,39,20.70
2018,07,16,09,40,20.70
2018,07,16,09,41,20.60
2018,07,16,09,42,20.70
2018,07,16,09,43,20.70
2018,07,16,09,44,20.70
2018,07,16,09,45,20.70
2018,07,16,09,46,20.70
2018,07,16,09,47,20.80
2018,07,16,09,48,20.80
2018,07,16,09,49,20.80
2018,07,16,09,50,20.90
2018,07,16,09,51,20.90
2018,07,16,09,52,20.90
2018,07,16,09,53,21.00
2018,07,16,09,54,21.00
2018,07,16,09,55,21.10
2018,07,16,09,56,21.10
2018,07,16,09,57,21.10
2018,07,16,09,58,21.10
2018,07,16,09,59,21.10
2018,07,16,10,00,21.20
2018,07,16,10,01,21.30
2018,07,16,10,02,21.40
2018,07,16,10,03,21.50
2018,07,16,10,04,21.60
2018,07,16,10,05,21.70
2018,07,16,10,06,21.80
2018,07,16,10,07,21.80
2018,07,16,10,08,21.90
2018,07,16,10,09,21.90
2018,07,16,10,10,21.90
2018,07,16,10,11,21.90
2018,07,16,10,12,21.80
2018,07,16,10,13,21.80
2018,07,16,10,14,21.80
2018,07,16,10,15,21.80
2018,07,16,10,16,21.80
2018,07,16,10,17,21.70
2018,07,16,10,18,21.70
2018,07,16,10,19,21.70
2018,07,16,10,20,21.80
2018,07,16,10,21,21.80
2018,07,16,10,22,21.80
2018,07,16,10,23,21.90
2018,07,16,10,24,22.10
2018,07,16,10,25,22.10
2018,07,16,10,26,22.20
2018,07,16,10,27,22.10
2018,07,16,10,28,22.10
2018,07,16,10,29,22.10
2018,07,16,10,30,22.10
2018,07,16,10,31,22.00
2018,07,16,10,32,21.90
2018,07,16,10,33,21.90
2018,07,16,10,34,21.80
2018,07,16,10,35,21.80
2018,07,16,10,36,21.80
2018,07,16,10,37,21.70
2018,07,16,10,38,21.70
2018,07,16,10,39,21.70
2018,07,16,10,40,21.70
2018,07,16,10,41,21.80
2018,07,16,10,42,21.80
2018,07,16,10,43,21.80
2018,07,16,10,44,21.80
2018,07,16,10,45,21.80
2018,07,16,10,46,21.70
2018,07,16,10,47,21.70
2018,07,16,10,48,21.70
2018,07,16,10,49,21.70
2018,07,16,10,50,21.70
2018,07,16,10,51,21.80
2018,07,16,10,52,21.80
2018,07,16,10,53,21.80
2018,07,16,10,54,21.80
2018,07,16,10,55,21.80
2018,07,16,10,56,21.80
2018,07,16,10,57,21.70
2018,07,16,10,58,21.70
2018,07,16,10,59,21.70
2018,07,16,11,00,21.70
2018,07,16,11,01,21.70
2018,07,16,11,02,21.70
2018,07,16,11,03,21.70
2018,07,16,11,04,21.70
2018,07,16,11,05,21.70
2018,07,16,11,06,21.70
2018,07,16,11,07,21.80
2018,07,16,11,08,21.90
2018,07,16,11,09,21.90
2018,07,16,11,10,22.00
2018,07,16,11,11,22.10
2018,07,16,11,12,22.10
2018,07,16,11,13,22.10
2018,07,16,11,14,22.10
2018,07,16,11,15,22.00
2018,07,16,11,16,21.90
2018,07,16,11,17,21.80
2018,07,16,11,18,21.80
2018,07,16,11,19,21.80
2018,07,16,11,20,21.90
2018,07,16,11,21,22.00
2018,07,16,11,22,22.10
2018,07,16,11,23,22.10
2018,07,16,11,24,22.10
2018,07,16,11,25,22.20
2018,07,16,11,26,22.20
2018,07,16,11,27,22.30
2018,07,16,11,28,22.30
2018,07,16,11,29,22.30
2018,07,16,11,30,22.30
2018,07,16,11,31,22.30
2018,07,16,11,32,22.30
2018,07,16,11,33,22.30
2018,07,16,11,34,22.30
2018,07,16,11,35,22.30
2018,07,16,11,36,22.30
2018,07,16,11,37,22.30
2018,07,16,11,38,22.30
2018,07,16,11,39,22.20
2018,07,16,11,40,22.20
2018,07,16,11,41,22.10
2018,07,16,11,42,22.10
2018,07,16,11,43,22.00
2018,07,16,11,44,22.00
2018,07,16,11,45,22.10
2018,07,16,11,46,22.10
2018,07,16,11,47,22.10
2018,07,16,11,48,22.20
2018,07,16,11,49,22.20
2018,07,16,11,50,22.20
2018,07,16,11,51,22.30
2018,07,16,11,52,22.30
2018,07,16,11,53,22.40
2018,07,16,11,54,22.40
2018,07,16,11,55,22.40
2018,07,16,11,56,22.40
2018,07,16,11,57,22.30
2018,07,16,11,58,22.30
2018,07,16,11,59,22.30
2018,07,16,12,00,22.20
2018,07,16,12,01,22.20
2018,07,16,12,02,22.10
2018,07,16,12,03,22.00
2018,07,16,12,04,21.90
2018,07,16,12,05,21.90
2018,07,16,12,06,21.90
2018,07,16,12,07,21.90
2018,07,16,12,08,22.00
2018,07,16,12,09,22.00
2018,07,16,12,10,22.00
2018,07,16,12,11,22.10
2018,07,16,12,12,22.10
2018,07,16,12,13,22.10
2018,07,16,12,14,22.10
2018,07,16,12,15,22.10
2018,07,16,12,16,22.10
2018,07,16,12,17,22.10
2018,07,16,12,18,22.10
2018,07,16,12,19,22.10
2018,07,16,12,20,22.10
2018,07,16,12,21,22.10
2018,07,16,12,22,22.00
2018,07,16,12,23,22.00
2018,07,16,12,24,21.80
2018,07,16,12,25,21.80
2018,07,16,12,26,21.70
2018,07,16,12,27,21.60
2018,07,16,12,28,21.60
2018,07,16,12,29,21.70
2018,07,16,12,30,21.70
2018,07,16,12,31,21.70
2018,07,16,12,32,21.60
2018,07,16,12,33,21.70
2018,07,16,12,34,21.70
2018,07,16,12,35,21.80
2018,07,16,12,36,21.80
2018,07,16,12,37,21.90
2018,07,16,12,38,22.00
2018,07,16,12,39,22.00
2018,07,16,12,40,22.10
2018,07,16,12,41,22.00
2018,07,16,12,42,22.00
2018,07,16,12,43,22.00
2018,07,16,12,44,21.90
2018,07,16,12,45,21.90
2018,07,16,12,46,22.00
2018,07,16,12,47,22.00
2018,07,16,12,48,22.10
2018,07,16,12,49,22.10
2018,07,16,12,50,22.10
2018,07,16,12,51,22.20
2018,07,16,12,52,22.20
2018,07,16,12,53,22.20
2018,07,16,12,54,22.20
2018,07,16,12,55,22.30
2018,07,16,12,56,22.30
2018,07,16,12,57,22.30
2018,07,16,12,58,22.40
2018,07,16,12,59,22.40
2018,07,16,13,00,22.40
2018,07,16,13,01,22.40
2018,07,16,13,02,22.30
2018,07,16,13,03,22.30
2018,07,16,13,04,22.30
2018,07,16,13,05,22.40
2018,07,16,13,06,22.40
2018,07,16,13,07,22.40
2018,07,16,13,08,22.40
2018,07,16,13,09,22.50
2018,07,16,13,10,22.60
2018,07,16,13,11,22.60
2018,07,16,13,12,22.70
2018,07,16,13,13,22.70
2018,07,16,13,14,22.80
2018,07,16,13,15,22.80
2018,07,16,13,16,22.90
2018,07,16,13,17,22.90
2018,07,16,13,18,22.90
2018,07,16,13,19,23.00
2018,07,16,13,20,23.10
2018,07,16,13,21,23.10
2018,07,16,13,22,23.10
2018,07,16,13,23,23.10
2018,07,16,13,24,23.20
2018,07,16,13,25,23.30
2018,07,16,13,26,23.30
2018,07,16,13,27,23.40
2018,07,16,13,28,23.40
2018,07,16,13,29,23.40
2018,07,16,13,30,23.40
2018,07,16,13,31,23.50
2018,07,16,13,32,23.40
2018,07,16,13,33,23.40
2018,07,16,13,34,23.30
2018,07,16,13,35,23.30
2018,07,16,13,36,23.30
2018,07,16,13,37,23.30
2018,07,16,13,38,23.30
2018,07,16,13,39,23.30
2018,07,16,13,40,23.40
2018,07,16,13,41,23.40
2018,07,16,13,42,23.40
2018,07,16,13,43,23.40
2018,07,16,13,44,23.40
2018,07,16,13,45,23.40
2018,07,16,13,46,23.40
2018,07,16,13,47,23.40
2018,07,16,13,48,23.50
2018,07,16,13,49,23.60
2018,07,16,13,50,23.60
2018,07,16,13,51,23.60
2018,07,16,13,52,23.60
2018,07,16,13,53,23.70
2018,07,16,13,54,23.70
2018,07,16,13,55,23.70
2018,07,16,13,56,23.80
2018,07,16,13,57,23.80
2018,07,16,13,58,23.90
2018,07,16,13,59,23.90
2018,07,16,14,00,24.00
2018,07,16,14,01,24.10
2018,07,16,14,02,24.20
2018,07,16,14,03,24.30
2018,07,16,14,04,24.30
2018,07,16,14,05,24.40
2018,07,16,14,06,24.50
2018,07,16,14,07,24.70
2018,07,16,14,08,24.70
2018,07,16,14,09,24.80
2018,07,16,14,10,24.80
2018,07,16,14,11,24.80
2018,07,16,14,12,24.80
2018,07,16,14,13,24.80
2018,07,16,14,14,24.70
2018,07,16,14,15,24.70
2018,07,16,14,16,24.70
2018,07,16,14,17,24.70
2018,07,16,14,18,24.70
2018,07,16,14,19,24.70
2018,07,16,14,20,24.70
2018,07,16,14,21,24.70
2018,07,16,14,22,24.70
2018,07,16,14,23,24.70
2018,07,16,14,24,24.80
2018,07,16,14,25,24.80
2018,07,16,14,26,24.90
2018,07,16,14,27,25.00
2018,07,16,14,28,25.00
2018,07,16,14,29,25.10
2018,07,16,14,30,25.10
2018,07,16,14,31,25.20
2018,07,16,14,32,25.20
2018,07,16,14,33,25.20
2018,07,16,14,34,25.20
2018,07,16,14,35,25.20
2018,07,16,14,36,25.20
2018,07,16,14,37,25.20
2018,07,16,14,38,25.20
2018,07,16,14,39,25.20
2018,07,16,14,40,25.20
2018,07,16,14,41,25.20
2018,07,16,14,42,25.30
2018,07,16,14,43,25.30
2018,07,16,14,44,25.30
2018,07,16,14,45,25.30
2018,07,16,14,46,25.30
2018,07,16,14,47,25.40
2018,07,16,14,48,25.40
2018,07,16,14,49,25.50
2018,07,16,14,50,25.50
2018,07,16,14,51,25.50
2018,07,16,14,52,25.50
2018,07,16,14,53,25.40
2018,07,16,14,54,25.40
2018,07,16,14,55,25.40
2018,07,16,14,56,25.40
2018,07,16,14,57,25.40
2018,07,16,14,58,25.50
2018,07,16,14,59,25.50
2018,07,16,15,00,25.60
2018,07,16,15,01,25.60
2018,07,16,15,02,25.70
2018,07,16,15,03,25.80
2018,07,16,15,04,25.80
2018,07,16,15,05,25.90
2018,07,16,15,06,25.90
2018,07,16,15,07,25.90
2018,07,16,15,08,25.90
2018,07,16,15,09,25.90
2018,07,16,15,10,25.90
2018,07,16,15,11,25.90
2018,07,16,15,12,26.00
2018,07,16,15,13,26.10
2018,07,16,15,14,26.10
2018,07,16,15,15,26.20
2018,07,16,15,16,26.20
2018,07,16,15,17,26.30
2018,07,16,15,18,26.30
2018,07,16,15,19,26.30
2018,07,16,15,20,26.30
2018,07,16,15,21,26.30
2018,07,16,15,22,26.40
2018,07,16,15,23,26.40
2018,07,16,15,24,26.50
2018,07,16,15,25,26.60
2018,07,16,15,26,26.60
2018,07,16,15,27,26.60
2018,07,16,15,28,26.60
2018,07,16,15,29,26.60
2018,07,16,15,30,26.50
2018,07,16,15,31,26.50
2018,07,16,15,32,26.50
2018,07,16,15,33,26.50
2018,07,16,15,34,26.50
2018,07,16,15,35,26.50
2018,07,16,15,36,26.40
2018,07,16,15,37,26.40
2018,07,16,15,38,26.40
2018,07,16,15,39,26.40
2018,07,16,15,40,26.40
2018,07,16,15,41,26.40
2018,07,16,15,42,26.40
2018,07,16,15,43,26.40
2018,07,16,15,44,26.50
2018,07,16,15,45,26.50
2018,07,16,15,46,26.50
2018,07,16,15,47,26.50
2018,07,16,15,48,26.50
2018,07,16,15,49,26.50
2018,07,16,15,50,26.60
2018,07,16,15,51,26.60
2018,07,16,15,52,26.60
2018,07,16,15,53,26.60
2018,07,16,15,54,26.60
2018,07,16,15,55,26.60
2018,07,16,15,56,26.60
2018,07,16,15,57,26.70
2018,07,16,15,58,26.70
2018,07,16,15,59,26.70
2018,07,16,16,00,26.80
2018,07,16,16,01,26.80
2018,07,16,16,02,26.90
2018,07,16,16,03,26.90
2018,07,16,16,04,26.90
2018,07,16,16,05,27.00
2018,07,16,16,06,27.00
2018,07,16,16,07,27.00
2018,07,16,16,08,27.00
2018,07,16,16,09,27.00
2018,07,16,16,10,27.00
2018,07,16,16,11,27.10
2018,07,16,16,12,27.10
2018,07,16,16,13,27.10
2018,07,16,16,14,27.10
2018,07,16,16,15,27.20
2018,07,16,16,16,27.20
2018,07,16,16,17,27.20
2018,07,16,16,18,27.20
2018,07,16,16,19,27.30
2018,07,16,16,20,27.30
2018,07,16,16,21,27.30
2018,07,16,16,22,27.40
2018,07,16,16,23,27.40
2018,07,16,16,24,27.40
2018,07,16,16,25,27.40
2018,07,16,16,26,27.40
2018,07,16,16,27,27.40
2018,07,16,16,28,27.40
2018,07,16,16,29,27.40
2018,07,16,16,30,27.40
2018,07,16,16,31,27.40
2018,07,16,16,32,27.40
2018,07,16,16,33,27.50
2018,07,16,16,34,27.50
2018,07,16,16,35,27.60
2018,07,16,16,36,27.60
2018,07,16,16,37,27.60
2018,07,16,16,38,27.60
2018,07,16,16,39,27.60
2018,07,16,16,40,27.60
2018,07,16,16,41,27.60
2018,07,16,16,42,27.60
2018,07,16,16,43,27.60
2018,07,16,16,44,27.60
2018,07,16,16,45,27.60
2018,07,16,16,46,27.60
2018,07,16,16,47,27.60
2018,07,16,16,48,27.60
2018,07,16,16,49,27.70
2018,07,16,16,50,27.70
2018,07,16,16,51,27.80
2018,07,16,16,52,27.80
2018,07,16,16,53,27.90
2018,07,16,16,54,27.90
2018,07,16,16,55,28.00
2018,07,16,16,56,28.00
2018,07,16,16,57,28.00
2018,07,16,16,58,28.00
2018,07,16,16,59,28.00
2018,07,16,17,00,28.00
2018,07,16,17,01,28.00
2018,07,16,17,02,28.10
2018,07,16,17,03,28.10
2018,07,16,17,04,28.10
2018,07,16,17,05,28.10
2018,07,16,17,06,28.20
2018,07,16,17,07,28.20
2018,07,16,17,08,28.20
2018,07,16,17,09,28.30
2018,07,16,17,10,28.30
2018,07,16,17,11,28.30
2018,07,16,17,12,28.30
2018,07,16,17,13,28.30
2018,07,16,17,14,28.30
2018,07,16,17,15,28.30
2018,07,16,17,16,28.30
2018,07,16,17,17,28.30
2018,07,16,17,18,28.30
2018,07,16,17,19,28.30